Regional Weather Roundup
Issued by NWS

Home | Current Version | Previous Version | Text Only | Print | Product List | Glossary On
Versions: 1 2 3 4 5 6 7 8 9 10 11 12 13 14 15 16 17 18 19 20 21 22 23 24 25 26 27 28 29 30 31 32 33 34 35 36 37 38 39 40 41 42 43 44 45 46 47 48 49 50
000
ASUS44 KFWD 052303
RWRTX
NORTH TEXAS HOURLY WEATHER ROUNDUP
NATIONAL WEATHER SERVICE FORT WORTH TX
500 PM CST MON DEC 05 2016

NOTE: "FAIR" INDICATES FEW OR NO CLOUDS BELOW 12,000 FEET WITH NO
SIGNIFICANT WEATHER AND/OR OBSTRUCTIONS TO VISIBILITY.

TXZ118-119-060000-
DALLAS/FORT WORTH METROPLEX

CITY           SKY/WX    TMP DP  RH WIND       PRES   REMARKS
DFW AIRPORT    CLOUDY    51  47  86 CALM      29.72F
DALLAS LOVE    CLOUDY    51  47  86 CALM      29.73F
FTW MEACHAM    CLOUDY    50  45  83 E3        29.71F
DAL-EXECUTIVE  LGT RAIN  50  48  93 SE5       29.72F
FTW-ALLIANCE   LGT RAIN  49  46  90 CALM      29.71F FOG
FTW-NAS-JRB    CLOUDY    50  47  89 CALM      29.72F
FTW-SPINKS     CLOUDY    50  46  87 CALM      29.73F FOG
ARLINGTON      CLOUDY    50  46  86 CALM      29.73F
ADDISON        DRIZZLE   50  50 100 SW3       29.73R
MESQUITE       LGT RAIN  48  46  93 CALM      29.75R FOG
LANCASTER      LGT RAIN  50  47  90 CALM      29.75S
$$

TXZ091>094-102>105-117-120-121-131>134-060000-
NORTH CENTRAL TEXAS

CITY           SKY/WX    TMP DP  RH WIND       PRES   REMARKS
SHRMAN/DENISON LGT RAIN  49  48  97 CALM      29.74F
GAINESVILLE    CLOUDY    47  45  91 CALM      29.74F
BOWIE          CLOUDY    50  45  81 SE3       29.69F
BRIDGEPORT     CLOUDY    50  45  84 S3        29.72F
DECATUR        CLOUDY    48  46  93 SE5       29.70F
DENTON         LGT RAIN  49  47  93 SE3       29.73S
MCKINNEY       LGT RAIN  48  48 100 S5        29.73F FOG
BONHAM         RAIN      46  45  93 N6        29.73F
GREENVILLE     CLOUDY    46  45  93 CALM      29.74R FOG
ROCKWALL       CLOUDY    48  47  99 CALM      29.74R
TERRELL        LGT RAIN  48  46  93 E3        29.74S FOG
WAXAHACHIE     CLOUDY    48  48 100 CALM      29.74F FOG
CLEBURNE       CLOUDY    50  50 100 CALM      29.74S
GRANBURY       CLOUDY    51  47  87 CALM      29.74S
$$

TXZ083>090-098>101-113>116-127>130-139>142-154-155-060000-
WESTERN NORTH TEXAS

CITY           SKY/WX    TMP DP  RH WIND       PRES   REMARKS
WICHITA FALLS  MOCLDY    51  42  71 S8        29.67F
WF-KICKAPOO    PTCLDY    51  44  75 SE10      29.69F
VERNON         CLEAR     54  39  57 S10       29.66F
ABILENE        CLEAR     50  46  86 S13       29.69F
ABILENE-DYESS  CLEAR     53  42  67 S10       29.68F
CISCO          PTCLDY    50  46  87 S6        29.71S
BRECKENRIDGE   CLOUDY    52  46  80 W6        29.71R
GRAHAM         CLEAR     52  45  76 SW6       29.69S
MINERAL WELLS  LGT RAIN  47  45  93 SE6       29.70F FOG
STEPHENVILLE   CLOUDY    49  45  87 SW5       29.75S
COMANCHE       CLOUDY    49  49 100 SW5       29.72F
COLEMAN        MOCLDY    50  44  80 SW6       29.73F
$$

TXZ143>147-156>162-174-175-060000-
CENTRAL TEXAS

CITY           SKY/WX    TMP DP  RH WIND       PRES   REMARKS
WACO           CLOUDY    50  49  96 CALM      29.75S
WACO-TSTC      LGT RAIN  50  48  93 CALM      29.75F
WACO-MCGREGOR  LGT RAIN  49  48  97 CALM      29.74F
HILLSBORO      CLOUDY    50  48  94 CALM      29.74S
CORSICANA      LGT RAIN  50  48  93 N3        29.75F FOG
MEXIA          RAIN      48  47  97 CALM      29.74S
HEARNE         CLOUDY    50  49  98 W3        29.75F
CAMERON        LGT RAIN  50  49  97 NW5       29.75S
TEMPLE         LGT RAIN  50  48  93 NW3       29.75S
KILLEEN        CLOUDY    49  48  96 SW5       29.73S
KILLEEN-SKYLRK CLOUDY    50  48  93 SW5       29.75S
FORT HOOD      CLOUDY    48  48 100 SW3       29.72S
GATESVILLE     CLOUDY    48  48 100 CALM      29.75F
HAMILTON       CLOUDY    50  50 100 W5        29.74R
$$

TXZ095>097-106>112-122>126-135>138-148>153-164>167-060000-
EAST TEXAS

CITY           SKY/WX    TMP DP  RH WIND       PRES   REMARKS
PARIS          CLOUDY    48  41  76 CALM      29.76R
SULPHUR SPRNGS LGT RAIN  47  46  96 CALM      29.76F
MOUNT PLEASANT CLOUDY    49  49 100 E5        29.74F
GILMER         CLOUDY    48  47  97 CALM      29.75R
MINEOLA        CLOUDY    48  48 100 CALM      29.74R FOG
TYLER          CLOUDY    50  48  93 CALM      29.73F
LONGVIEW       FOG       49  49 100 NE3       29.72F VSB 1
MARSHALL       CLOUDY    45  43  93 CALM      29.76F VSB 1
ATHENS         DRIZZLE   46  46 100 CALM      29.73R
PALESTINE      CLOUDY    49  49 100 CALM      29.75S
JACKSONVILLE   FOG       47  47 100 CALM      29.73F VSB 1/2
HENDERSON      CLOUDY    47  47 100 NE3       29.73F FOG
CENTER         CLOUDY    49  48  95 N7        29.72F FOG
NACOGDOCHES    CLOUDY    48  46  93 NE3       29.69F
LUFKIN         LGT RAIN  48  48 100 NW3       29.73R FOG
$$

SUPPLEMENTAL OBSERVATIONS (CENTRAL)

CITY           SKY/WX    TMP DP  RH WIND       PRES   REMARKS
$$

SUPPLEMENTAL OBSERVATIONS (WEST)

CITY           SKY/WX    TMP DP  RH WIND       PRES   REMARKS
$$

SUPPLEMENTAL OBSERVATIONS (EAST)

CITY           SKY/WX    TMP DP  RH WIND       PRES   REMARKS
$$

SUPPLEMENTAL OBSERVATIONS ARE A COLLECTION OF AUTOMATED INSTRUMENTS
THAT ARE MAINTAINED BY A VARIETY OF FEDERAL AND STATE AGENCIES.
CERTAIN ELEMENTS...SUCH AS HUMIDITY VALUES AND SUSTAINED WIND
SPEEDS...MAY BE APPROXIMATED.




USA.gov is the U.S. government's official web portal to all federal, state and local government web resources and services.